Year,Month,Day,Hour,Minute,Value (Times are PST for windspeed in km/hr)
2017,06,14,00,00,0.00
2017,06,14,00,01,0.00
2017,06,14,00,02,1.00
2017,06,14,00,03,0.00
2017,06,14,00,04,0.00
2017,06,14,00,05,0.00
2017,06,14,00,06,0.00
2017,06,14,00,07,0.00
2017,06,14,00,08,0.10
2017,06,14,00,09,0.00
2017,06,14,00,10,2.00
2017,06,14,00,11,1.00
2017,06,14,00,12,0.00
2017,06,14,00,13,0.10
2017,06,14,00,14,0.00
2017,06,14,00,15,3.50
2017,06,14,00,16,3.90
2017,06,14,00,17,6.70
2017,06,14,00,18,3.60
2017,06,14,00,19,3.50
2017,06,14,00,20,3.40
2017,06,14,00,21,2.10
2017,06,14,00,22,0.00
2017,06,14,00,23,3.30
2017,06,14,00,24,2.10
2017,06,14,00,25,0.00
2017,06,14,00,26,0.00
2017,06,14,00,27,0.00
2017,06,14,00,28,0.00
2017,06,14,00,29,3.20
2017,06,14,00,30,0.70
2017,06,14,00,31,0.10
2017,06,14,00,32,0.00
2017,06,14,00,33,0.00
2017,06,14,00,34,0.00
2017,06,14,00,35,5.20
2017,06,14,00,36,2.50
2017,06,14,00,37,0.20
2017,06,14,00,38,0.00
2017,06,14,00,39,0.00
2017,06,14,00,40,2.40
2017,06,14,00,41,2.20
2017,06,14,00,42,0.00
2017,06,14,00,43,0.00
2017,06,14,00,44,0.00
2017,06,14,00,45,0.00
2017,06,14,00,46,0.00
2017,06,14,00,47,0.00
2017,06,14,00,48,1.00
2017,06,14,00,49,6.90
2017,06,14,00,50,0.10
2017,06,14,00,51,4.70
2017,06,14,00,52,5.30
2017,06,14,00,53,0.00
2017,06,14,00,54,0.00
2017,06,14,00,55,0.00
2017,06,14,00,56,0.10
2017,06,14,00,57,0.00
2017,06,14,00,58,0.00
2017,06,14,00,59,3.90
2017,06,14,01,00,1.50
2017,06,14,01,01,4.60
2017,06,14,01,02,2.60
2017,06,14,01,03,2.90
2017,06,14,01,04,6.10
2017,06,14,01,05,4.40
2017,06,14,01,06,1.00
2017,06,14,01,07,0.70
2017,06,14,01,08,7.70
2017,06,14,01,09,6.00
2017,06,14,01,10,2.30
2017,06,14,01,11,4.30
2017,06,14,01,12,2.30
2017,06,14,01,13,2.30
2017,06,14,01,14,0.60
2017,06,14,01,15,1.50
2017,06,14,01,16,8.70
2017,06,14,01,17,5.80
2017,06,14,01,18,0.30
2017,06,14,01,19,0.30
2017,06,14,01,20,2.50
2017,06,14,01,21,0.00
2017,06,14,01,22,5.20
2017,06,14,01,23,0.20
2017,06,14,01,24,0.70
2017,06,14,01,25,8.10
2017,06,14,01,26,3.40
2017,06,14,01,27,8.00
2017,06,14,01,28,5.20
2017,06,14,01,29,1.90
2017,06,14,01,30,3.30
2017,06,14,01,31,0.80
2017,06,14,01,32,0.00
2017,06,14,01,33,0.00
2017,06,14,01,34,0.60
2017,06,14,01,35,2.00
2017,06,14,01,36,0.20
2017,06,14,01,37,1.10
2017,06,14,01,38,0.00
2017,06,14,01,39,0.10
2017,06,14,01,40,0.00
2017,06,14,01,41,0.00
2017,06,14,01,42,0.10
2017,06,14,01,43,0.00
2017,06,14,01,44,0.00
2017,06,14,01,45,0.00
2017,06,14,01,46,0.00
2017,06,14,01,47,0.00
2017,06,14,01,48,0.00
2017,06,14,01,49,0.00
2017,06,14,01,50,0.00
2017,06,14,01,51,0.00
2017,06,14,01,52,0.10
2017,06,14,01,53,0.00
2017,06,14,01,54,0.00
2017,06,14,01,55,0.00
2017,06,14,01,56,0.00
2017,06,14,01,57,0.00
2017,06,14,01,58,0.00
2017,06,14,01,59,0.00
2017,06,14,02,00,0.00
2017,06,14,02,01,0.00
2017,06,14,02,02,0.00
2017,06,14,02,03,0.00
2017,06,14,02,04,0.00
2017,06,14,02,05,0.00
2017,06,14,02,06,0.00
2017,06,14,02,07,0.00
2017,06,14,02,08,1.30
2017,06,14,02,09,0.00
2017,06,14,02,10,0.20
2017,06,14,02,11,3.50
2017,06,14,02,12,3.30
2017,06,14,02,13,1.40
2017,06,14,02,14,1.40
2017,06,14,02,15,0.00
2017,06,14,02,16,0.00
2017,06,14,02,17,2.40
2017,06,14,02,18,7.40
2017,06,14,02,19,4.20
2017,06,14,02,20,0.00
2017,06,14,02,21,0.10
2017,06,14,02,22,0.00
2017,06,14,02,23,0.00
2017,06,14,02,24,0.00
2017,06,14,02,25,2.20
2017,06,14,02,26,1.00
2017,06,14,02,27,3.80
2017,06,14,02,28,0.00
2017,06,14,02,29,0.00
2017,06,14,02,30,1.60
2017,06,14,02,31,7.10
2017,06,14,02,32,4.60
2017,06,14,02,33,1.40
2017,06,14,02,34,1.10
2017,06,14,02,35,1.00
2017,06,14,02,36,1.90
2017,06,14,02,37,0.20
2017,06,14,02,38,4.70
2017,06,14,02,39,1.70
2017,06,14,02,40,2.10
2017,06,14,02,41,1.30
2017,06,14,02,42,0.00
2017,06,14,02,43,0.00
2017,06,14,02,44,0.00
2017,06,14,02,45,1.60
2017,06,14,02,46,4.90
2017,06,14,02,47,1.40
2017,06,14,02,48,0.70
2017,06,14,02,49,5.80
2017,06,14,02,50,1.90
2017,06,14,02,51,2.50
2017,06,14,02,52,4.80
2017,06,14,02,53,4.90
2017,06,14,02,54,0.40
2017,06,14,02,55,0.00
2017,06,14,02,56,0.00
2017,06,14,02,57,0.00
2017,06,14,02,58,4.00
2017,06,14,02,59,4.70
2017,06,14,03,00,4.90
2017,06,14,03,01,6.50
2017,06,14,03,02,7.10
2017,06,14,03,03,4.60
2017,06,14,03,04,0.10
2017,06,14,03,05,0.70
2017,06,14,03,06,5.50
2017,06,14,03,07,6.40
2017,06,14,03,08,12.10
2017,06,14,03,09,8.70
2017,06,14,03,10,9.40
2017,06,14,03,11,8.90
2017,06,14,03,12,9.70
2017,06,14,03,13,7.00
2017,06,14,03,14,8.10
2017,06,14,03,15,4.30
2017,06,14,03,16,3.10
2017,06,14,03,17,5.90
2017,06,14,03,18,7.20
2017,06,14,03,19,6.00
2017,06,14,03,20,1.00
2017,06,14,03,21,0.00
2017,06,14,03,22,1.00
2017,06,14,03,23,5.90
2017,06,14,03,24,2.00
2017,06,14,03,25,9.70
2017,06,14,03,26,6.90
2017,06,14,03,27,8.70
2017,06,14,03,28,7.60
2017,06,14,03,29,2.30
2017,06,14,03,30,0.00
2017,06,14,03,31,1.40
2017,06,14,03,32,0.00
2017,06,14,03,33,0.00
2017,06,14,03,34,2.30
2017,06,14,03,35,5.10
2017,06,14,03,36,1.20
2017,06,14,03,37,7.50
2017,06,14,03,38,8.60
2017,06,14,03,39,4.30
2017,06,14,03,40,0.00
2017,06,14,03,41,2.90
2017,06,14,03,42,5.10
2017,06,14,03,43,8.30
2017,06,14,03,44,2.10
2017,06,14,03,45,0.00
2017,06,14,03,46,1.00
2017,06,14,03,47,0.10
2017,06,14,03,48,0.10
2017,06,14,03,49,2.30
2017,06,14,03,50,10.30
2017,06,14,03,51,11.50
2017,06,14,03,52,14.10
2017,06,14,03,53,10.40
2017,06,14,03,54,4.20
2017,06,14,03,55,3.90
2017,06,14,03,56,5.70
2017,06,14,03,57,7.50
2017,06,14,03,58,2.70
2017,06,14,03,59,7.60
2017,06,14,04,00,8.30
2017,06,14,04,01,5.00
2017,06,14,04,02,7.20
2017,06,14,04,03,3.60
2017,06,14,04,04,8.00
2017,06,14,04,05,5.20
2017,06,14,04,06,0.00
2017,06,14,04,07,0.50
2017,06,14,04,08,0.00
2017,06,14,04,09,0.00
2017,06,14,04,10,0.00
2017,06,14,04,11,0.00
2017,06,14,04,12,0.00
2017,06,14,04,13,0.00
2017,06,14,04,14,0.00
2017,06,14,04,15,0.00
2017,06,14,04,16,0.00
2017,06,14,04,17,0.00
2017,06,14,04,18,0.00
2017,06,14,04,19,0.00
2017,06,14,04,20,0.00
2017,06,14,04,21,0.00
2017,06,14,04,22,0.20
2017,06,14,04,23,3.80
2017,06,14,04,24,6.10
2017,06,14,04,25,0.70
2017,06,14,04,26,0.10
2017,06,14,04,27,0.00
2017,06,14,04,28,0.00
2017,06,14,04,29,0.00
2017,06,14,04,30,0.00
2017,06,14,04,31,1.00
2017,06,14,04,32,3.90
2017,06,14,04,33,0.20
2017,06,14,04,34,0.00
2017,06,14,04,35,0.10
2017,06,14,04,36,0.00
2017,06,14,04,37,0.00
2017,06,14,04,38,0.00
2017,06,14,04,39,0.00
2017,06,14,04,40,0.10
2017,06,14,04,41,0.00
2017,06,14,04,42,3.30
2017,06,14,04,43,0.80
2017,06,14,04,44,4.20
2017,06,14,04,45,1.70
2017,06,14,04,46,1.30
2017,06,14,04,47,2.60
2017,06,14,04,48,1.70
2017,06,14,04,49,0.00
2017,06,14,04,50,0.60
2017,06,14,04,51,0.00
2017,06,14,04,52,0.20
2017,06,14,04,53,2.10
2017,06,14,04,54,4.40
2017,06,14,04,55,7.40
2017,06,14,04,56,5.20
2017,06,14,04,57,2.80
2017,06,14,04,58,1.90
2017,06,14,04,59,3.00
2017,06,14,05,00,4.80
2017,06,14,05,01,0.00
2017,06,14,05,02,0.00
2017,06,14,05,03,0.00
2017,06,14,05,04,0.00
2017,06,14,05,05,0.00
2017,06,14,05,06,0.00
2017,06,14,05,07,1.90
2017,06,14,05,08,1.50
2017,06,14,05,09,0.00
2017,06,14,05,10,0.00
2017,06,14,05,11,0.00
2017,06,14,05,12,0.00
2017,06,14,05,13,0.10
2017,06,14,05,14,0.00
2017,06,14,05,15,2.50
2017,06,14,05,16,0.10
2017,06,14,05,17,2.40
2017,06,14,05,18,0.10
2017,06,14,05,19,0.00
2017,06,14,05,20,0.10
2017,06,14,05,21,7.10
2017,06,14,05,22,5.40
2017,06,14,05,23,1.80
2017,06,14,05,24,1.00
2017,06,14,05,25,6.50
2017,06,14,05,26,4.70
2017,06,14,05,27,7.20
2017,06,14,05,28,4.60
2017,06,14,05,29,7.70
2017,06,14,05,30,0.40
2017,06,14,05,31,0.00
2017,06,14,05,32,2.80
2017,06,14,05,33,2.90
2017,06,14,05,34,6.20
2017,06,14,05,35,6.00
2017,06,14,05,36,3.00
2017,06,14,05,37,2.10
2017,06,14,05,38,2.50
2017,06,14,05,39,1.90
2017,06,14,05,40,0.00
2017,06,14,05,41,2.00
2017,06,14,05,42,3.60
2017,06,14,05,43,0.40
2017,06,14,05,44,0.00
2017,06,14,05,45,0.00
2017,06,14,05,46,5.40
2017,06,14,05,47,3.20
2017,06,14,05,48,3.60
2017,06,14,05,49,0.60
2017,06,14,05,50,0.20
2017,06,14,05,51,1.90
2017,06,14,05,52,0.00
2017,06,14,05,53,0.30
2017,06,14,05,54,1.90
2017,06,14,05,55,0.00
2017,06,14,05,56,0.00
2017,06,14,05,57,0.00
2017,06,14,05,58,2.30
2017,06,14,05,59,3.30
2017,06,14,06,00,6.10
2017,06,14,06,01,1.80
2017,06,14,06,02,0.00
2017,06,14,06,03,0.00
2017,06,14,06,04,0.10
2017,06,14,06,05,0.00
2017,06,14,06,06,0.00
2017,06,14,06,07,0.00
2017,06,14,06,08,0.00
2017,06,14,06,09,0.00
2017,06,14,06,10,0.00
2017,06,14,06,11,0.30
2017,06,14,06,12,5.70
2017,06,14,06,13,1.90
2017,06,14,06,14,0.10
2017,06,14,06,15,0.00
2017,06,14,06,16,0.00
2017,06,14,06,17,0.00
2017,06,14,06,18,0.00
2017,06,14,06,19,0.00
2017,06,14,06,20,1.60
2017,06,14,06,21,2.40
2017,06,14,06,22,0.00
2017,06,14,06,23,0.10
2017,06,14,06,24,0.00
2017,06,14,06,25,0.00
2017,06,14,06,26,0.00
2017,06,14,06,27,0.00
2017,06,14,06,28,0.00
2017,06,14,06,29,1.40
2017,06,14,06,30,6.50
2017,06,14,06,31,9.50
2017,06,14,06,32,3.00
2017,06,14,06,33,3.50
2017,06,14,06,34,4.10
2017,06,14,06,35,4.90
2017,06,14,06,36,5.30
2017,06,14,06,37,3.40
2017,06,14,06,38,5.90
2017,06,14,06,39,0.40
2017,06,14,06,40,7.10
2017,06,14,06,41,3.50
2017,06,14,06,42,5.00
2017,06,14,06,43,5.50
2017,06,14,06,44,5.20
2017,06,14,06,45,0.10
2017,06,14,06,46,2.00
2017,06,14,06,47,0.00
2017,06,14,06,48,1.10
2017,06,14,06,49,2.50
2017,06,14,06,50,0.00
2017,06,14,06,51,0.50
2017,06,14,06,52,7.70
2017,06,14,06,53,3.60
2017,06,14,06,54,9.00
2017,06,14,06,55,6.80
2017,06,14,06,56,1.80
2017,06,14,06,57,5.30
2017,06,14,06,58,0.90
2017,06,14,06,59,5.60
2017,06,14,07,00,6.30
2017,06,14,07,01,4.10
2017,06,14,07,02,6.10
2017,06,14,07,03,3.10
2017,06,14,07,04,10.40
2017,06,14,07,05,5.00
2017,06,14,07,06,2.30
2017,06,14,07,07,2.50
2017,06,14,07,08,0.00
2017,06,14,07,09,0.70
2017,06,14,07,10,0.00
2017,06,14,07,11,0.00
2017,06,14,07,12,0.10
2017,06,14,07,13,0.00
2017,06,14,07,14,0.00
2017,06,14,07,15,0.00
2017,06,14,07,16,0.00
2017,06,14,07,17,0.00
2017,06,14,07,18,0.00
2017,06,14,07,19,0.00
2017,06,14,07,20,0.00
2017,06,14,07,21,0.10
2017,06,14,07,22,0.00
2017,06,14,07,23,0.00
2017,06,14,07,24,0.00
2017,06,14,07,25,0.00
2017,06,14,07,26,0.00
2017,06,14,07,27,0.00
2017,06,14,07,28,0.00
2017,06,14,07,29,0.00
2017,06,14,07,30,0.00
2017,06,14,07,31,0.00
2017,06,14,07,32,3.50
2017,06,14,07,33,5.80
2017,06,14,07,34,2.40
2017,06,14,07,35,0.40
2017,06,14,07,36,1.60
2017,06,14,07,37,2.10
2017,06,14,07,38,0.10
2017,06,14,07,39,0.00
2017,06,14,07,40,0.00
2017,06,14,07,41,0.00
2017,06,14,07,42,0.00
2017,06,14,07,43,0.00
2017,06,14,07,44,0.10
2017,06,14,07,45,0.00
2017,06,14,07,46,0.00
2017,06,14,07,47,0.00
2017,06,14,07,48,0.00
2017,06,14,07,49,0.00
2017,06,14,07,50,3.10
2017,06,14,07,51,2.40
2017,06,14,07,52,0.00
2017,06,14,07,53,0.00
2017,06,14,07,54,0.60
2017,06,14,07,55,0.00
2017,06,14,07,56,0.00
2017,06,14,07,57,0.00
2017,06,14,07,58,1.20
2017,06,14,07,59,3.10
2017,06,14,08,00,1.00
2017,06,14,08,01,4.40
2017,06,14,08,02,5.10
2017,06,14,08,03,4.80
2017,06,14,08,04,6.50
2017,06,14,08,05,6.40
2017,06,14,08,06,3.30
2017,06,14,08,07,0.00
2017,06,14,08,08,3.10
2017,06,14,08,09,8.10
2017,06,14,08,10,5.30
2017,06,14,08,11,6.10
2017,06,14,08,12,8.00
2017,06,14,08,13,2.30
2017,06,14,08,14,0.60
2017,06,14,08,15,0.60
2017,06,14,08,16,2.70
2017,06,14,08,17,0.10
2017,06,14,08,18,5.20
2017,06,14,08,19,7.10
2017,06,14,08,20,7.20
2017,06,14,08,21,2.70
2017,06,14,08,22,7.50
2017,06,14,08,23,6.60
2017,06,14,08,24,4.80
2017,06,14,08,25,4.40
2017,06,14,08,26,0.40
2017,06,14,08,27,1.90
2017,06,14,08,28,3.50
2017,06,14,08,29,3.80
2017,06,14,08,30,5.70
2017,06,14,08,31,7.80
2017,06,14,08,32,7.20
2017,06,14,08,33,8.40
2017,06,14,08,34,6.10
2017,06,14,08,35,7.60
2017,06,14,08,36,8.10
2017,06,14,08,37,6.70
2017,06,14,08,38,8.90
2017,06,14,08,39,9.20
2017,06,14,08,40,8.30
2017,06,14,08,41,4.50
2017,06,14,08,42,5.20
2017,06,14,08,43,6.40
2017,06,14,08,44,6.60
2017,06,14,08,45,6.40
2017,06,14,08,46,0.10
2017,06,14,08,47,4.10
2017,06,14,08,48,7.80
2017,06,14,08,49,4.10
2017,06,14,08,50,7.40
2017,06,14,08,51,0.20
2017,06,14,08,52,1.90
2017,06,14,08,53,8.10
2017,06,14,08,54,6.80
2017,06,14,08,55,7.70
2017,06,14,08,56,7.60
2017,06,14,08,57,2.40
2017,06,14,08,58,8.40
2017,06,14,08,59,5.90
2017,06,14,09,00,6.90
2017,06,14,09,01,4.00
2017,06,14,09,02,0.00
2017,06,14,09,03,6.40
2017,06,14,09,04,3.30
2017,06,14,09,05,0.70
2017,06,14,09,06,2.90
2017,06,14,09,07,9.30
2017,06,14,09,08,9.30
2017,06,14,09,09,5.80
2017,06,14,09,10,8.70
2017,06,14,09,11,10.10
2017,06,14,09,12,6.70
2017,06,14,09,13,8.00
2017,06,14,09,14,7.50
2017,06,14,09,15,6.10
2017,06,14,09,16,2.50
2017,06,14,09,17,4.40
2017,06,14,09,18,5.60
2017,06,14,09,19,7.40
2017,06,14,09,20,10.80
2017,06,14,09,21,9.60
2017,06,14,09,22,5.90
2017,06,14,09,23,8.90
2017,06,14,09,24,8.60
2017,06,14,09,25,5.50
2017,06,14,09,26,6.40
2017,06,14,09,27,8.10
2017,06,14,09,28,5.40
2017,06,14,09,29,0.20
2017,06,14,09,30,6.50
2017,06,14,09,31,7.50
2017,06,14,09,32,1.50
2017,06,14,09,33,1.10
2017,06,14,09,34,1.50
2017,06,14,09,35,0.60
2017,06,14,09,36,3.00
2017,06,14,09,37,0.00
2017,06,14,09,38,2.30
2017,06,14,09,39,4.80
2017,06,14,09,40,6.50
2017,06,14,09,41,7.10
2017,06,14,09,42,6.10
2017,06,14,09,43,7.40
2017,06,14,09,44,2.30
2017,06,14,09,45,8.70
2017,06,14,09,46,6.80
2017,06,14,09,47,4.00
2017,06,14,09,48,5.00
2017,06,14,09,49,0.60
2017,06,14,09,50,3.10
2017,06,14,09,51,8.50
2017,06,14,09,52,3.00
2017,06,14,09,53,4.70
2017,06,14,09,54,0.30
2017,06,14,09,55,1.30
2017,06,14,09,56,3.80
2017,06,14,09,57,8.10
2017,06,14,09,58,0.50
2017,06,14,09,59,6.80
2017,06,14,10,00,5.50
2017,06,14,10,01,6.60
2017,06,14,10,02,4.00
2017,06,14,10,03,10.00
2017,06,14,10,04,6.30
2017,06,14,10,05,3.30
2017,06,14,10,06,4.80
2017,06,14,10,07,2.60
2017,06,14,10,08,8.00
2017,06,14,10,09,4.10
2017,06,14,10,10,0.30
2017,06,14,10,11,0.00
2017,06,14,10,12,1.50
2017,06,14,10,13,0.10
2017,06,14,10,14,3.40
2017,06,14,10,15,0.10
2017,06,14,10,16,1.90
2017,06,14,10,17,4.60
2017,06,14,10,18,6.30
2017,06,14,10,19,1.40
2017,06,14,10,20,7.60
2017,06,14,10,21,5.70
2017,06,14,10,22,6.20
2017,06,14,10,23,5.10
2017,06,14,10,24,5.10
2017,06,14,10,25,9.90
2017,06,14,10,26,5.10
2017,06,14,10,27,7.30
2017,06,14,10,28,8.70
2017,06,14,10,29,7.70
2017,06,14,10,30,0.80
2017,06,14,10,31,5.60
2017,06,14,10,32,9.70
2017,06,14,10,33,8.20
2017,06,14,10,34,3.50
2017,06,14,10,35,2.50
2017,06,14,10,36,10.80
2017,06,14,10,37,5.10
2017,06,14,10,38,2.20
2017,06,14,10,39,1.60
2017,06,14,10,40,5.30
2017,06,14,10,41,5.60
2017,06,14,10,42,7.60
2017,06,14,10,43,5.90
2017,06,14,10,44,8.10
2017,06,14,10,45,2.30
2017,06,14,10,46,11.00
2017,06,14,10,47,6.40
2017,06,14,10,48,7.60
2017,06,14,10,49,9.30
2017,06,14,10,50,5.40
2017,06,14,10,51,8.50
2017,06,14,10,52,2.50
2017,06,14,10,53,9.30
2017,06,14,10,54,7.60
2017,06,14,10,55,7.70
2017,06,14,10,56,14.80
2017,06,14,10,57,11.70
2017,06,14,10,58,11.30
2017,06,14,10,59,11.90
2017,06,14,11,00,8.90
2017,06,14,11,01,6.50
2017,06,14,11,02,10.90
2017,06,14,11,03,8.80
2017,06,14,11,04,5.40
2017,06,14,11,05,12.00
2017,06,14,11,06,9.70
2017,06,14,11,07,8.60
2017,06,14,11,08,5.60
2017,06,14,11,09,6.40
2017,06,14,11,10,9.10
2017,06,14,11,11,12.10
2017,06,14,11,12,9.40
2017,06,14,11,13,11.30
2017,06,14,11,14,7.00
2017,06,14,11,15,10.70
2017,06,14,11,16,13.80
2017,06,14,11,17,9.40
2017,06,14,11,18,8.50
2017,06,14,11,19,8.80
2017,06,14,11,20,16.00
2017,06,14,11,21,11.60
2017,06,14,11,22,10.80
2017,06,14,11,23,10.50
2017,06,14,11,24,10.50
2017,06,14,11,25,15.50
2017,06,14,11,26,10.10
2017,06,14,11,27,6.20
2017,06,14,11,28,6.10
2017,06,14,11,29,8.00
2017,06,14,11,30,8.00
2017,06,14,11,31,10.10
2017,06,14,11,32,10.10
2017,06,14,11,33,6.70
2017,06,14,11,34,11.40
2017,06,14,11,35,12.60
2017,06,14,11,36,6.00
2017,06,14,11,37,6.20
2017,06,14,11,38,4.30
2017,06,14,11,39,9.20
2017,06,14,11,40,8.50
2017,06,14,11,41,7.00
2017,06,14,11,42,9.40
2017,06,14,11,43,5.40
2017,06,14,11,44,8.10
2017,06,14,11,45,5.30
2017,06,14,11,46,2.30
2017,06,14,11,47,4.20
2017,06,14,11,48,7.10
2017,06,14,11,49,5.30
2017,06,14,11,50,8.50
2017,06,14,11,51,3.10
2017,06,14,11,52,0.10
2017,06,14,11,53,8.50
2017,06,14,11,54,2.30
2017,06,14,11,55,0.00
2017,06,14,11,56,0.00
2017,06,14,11,57,0.10
2017,06,14,11,58,5.40
2017,06,14,11,59,9.00
2017,06,14,12,00,9.40
2017,06,14,12,01,10.10
2017,06,14,12,02,6.80
2017,06,14,12,03,4.00
2017,06,14,12,04,12.30
2017,06,14,12,05,7.10
2017,06,14,12,06,8.90
2017,06,14,12,07,7.30
2017,06,14,12,08,9.40
2017,06,14,12,09,9.40
2017,06,14,12,10,10.70
2017,06,14,12,11,6.80
2017,06,14,12,12,9.00
2017,06,14,12,13,7.70
2017,06,14,12,14,3.40
2017,06,14,12,15,1.10
2017,06,14,12,16,12.10
2017,06,14,12,17,11.60
2017,06,14,12,18,9.90
2017,06,14,12,19,2.40
2017,06,14,12,20,10.00
2017,06,14,12,21,4.40
2017,06,14,12,22,7.20
2017,06,14,12,23,9.50
2017,06,14,12,24,2.80
2017,06,14,12,25,1.80
2017,06,14,12,26,8.80
2017,06,14,12,27,6.80
2017,06,14,12,28,0.00
2017,06,14,12,29,2.10
2017,06,14,12,30,6.60
2017,06,14,12,31,0.60
2017,06,14,12,32,5.30
2017,06,14,12,33,7.10
2017,06,14,12,34,6.40
2017,06,14,12,35,10.40
2017,06,14,12,36,7.10
2017,06,14,12,37,7.60
2017,06,14,12,38,7.60
2017,06,14,12,39,10.20
2017,06,14,12,40,9.20
2017,06,14,12,41,6.10
2017,06,14,12,42,7.60
2017,06,14,12,43,3.70
2017,06,14,12,44,4.50
2017,06,14,12,45,2.30
2017,06,14,12,46,4.20
2017,06,14,12,47,1.30
2017,06,14,12,48,1.30
2017,06,14,12,49,3.30
2017,06,14,12,50,0.10
2017,06,14,12,51,0.10
2017,06,14,12,52,7.00
2017,06,14,12,53,7.10
2017,06,14,12,54,1.80
2017,06,14,12,55,0.10
2017,06,14,12,56,0.20
2017,06,14,12,57,0.10
2017,06,14,12,58,1.10
2017,06,14,12,59,6.80
2017,06,14,13,00,4.30
2017,06,14,13,01,5.00
2017,06,14,13,02,4.30
2017,06,14,13,03,8.50
2017,06,14,13,04,11.40
2017,06,14,13,05,8.00
2017,06,14,13,06,4.30
2017,06,14,13,07,3.80
2017,06,14,13,08,3.40
2017,06,14,13,09,8.50
2017,06,14,13,10,8.90
2017,06,14,13,11,10.00
2017,06,14,13,12,8.00
2017,06,14,13,13,10.50
2017,06,14,13,14,12.40
2017,06,14,13,15,13.00
2017,06,14,13,16,9.70
2017,06,14,13,17,4.40
2017,06,14,13,18,7.70
2017,06,14,13,19,10.30
2017,06,14,13,20,3.50
2017,06,14,13,21,4.60
2017,06,14,13,22,7.30
2017,06,14,13,23,8.10
2017,06,14,13,24,7.00
2017,06,14,13,25,5.30
2017,06,14,13,26,2.10
2017,06,14,13,27,9.30
2017,06,14,13,28,15.40
2017,06,14,13,29,14.00
2017,06,14,13,30,14.10
2017,06,14,13,31,14.10
2017,06,14,13,32,11.60
2017,06,14,13,33,8.60
2017,06,14,13,34,9.90
2017,06,14,13,35,9.40
2017,06,14,13,36,8.50
2017,06,14,13,37,10.50
2017,06,14,13,38,7.40
2017,06,14,13,39,5.90
2017,06,14,13,40,9.30
2017,06,14,13,41,6.30
2017,06,14,13,42,10.20
2017,06,14,13,43,8.70
2017,06,14,13,44,9.70
2017,06,14,13,45,13.90
2017,06,14,13,46,6.80
2017,06,14,13,47,9.30
2017,06,14,13,48,5.10
2017,06,14,13,49,10.00
2017,06,14,13,50,5.50
2017,06,14,13,51,7.60
2017,06,14,13,52,6.60
2017,06,14,13,53,9.10
2017,06,14,13,54,6.40
2017,06,14,13,55,10.90
2017,06,14,13,56,9.60
2017,06,14,13,57,10.90
2017,06,14,13,58,10.30
2017,06,14,13,59,12.30
2017,06,14,14,00,12.00
2017,06,14,14,01,4.50
2017,06,14,14,02,12.90
2017,06,14,14,03,7.00
2017,06,14,14,04,9.90
2017,06,14,14,05,6.40
2017,06,14,14,06,8.50
2017,06,14,14,07,8.60
2017,06,14,14,08,4.40
2017,06,14,14,09,0.00
2017,06,14,14,10,0.10
2017,06,14,14,11,0.00
2017,06,14,14,12,0.90
2017,06,14,14,13,1.40
2017,06,14,14,14,1.90
2017,06,14,14,15,2.50
2017,06,14,14,16,5.30
2017,06,14,14,17,1.00
2017,06,14,14,18,0.00
2017,06,14,14,19,0.00
2017,06,14,14,20,0.00
2017,06,14,14,21,0.00
2017,06,14,14,22,2.50
2017,06,14,14,23,8.60
2017,06,14,14,24,9.40
2017,06,14,14,25,7.90
2017,06,14,14,26,6.30
2017,06,14,14,27,9.00
2017,06,14,14,28,9.40
2017,06,14,14,29,6.70
2017,06,14,14,30,9.50
2017,06,14,14,31,10.00
2017,06,14,14,32,8.80
2017,06,14,14,33,2.60
2017,06,14,14,34,9.70
2017,06,14,14,35,6.60
2017,06,14,14,36,6.80
2017,06,14,14,37,4.50
2017,06,14,14,38,9.20
2017,06,14,14,39,4.80
2017,06,14,14,40,10.00
2017,06,14,14,41,6.00
2017,06,14,14,42,12.70
2017,06,14,14,43,10.00
2017,06,14,14,44,7.70
2017,06,14,14,45,11.80
2017,06,14,14,46,11.30
2017,06,14,14,47,7.90
2017,06,14,14,48,4.30
2017,06,14,14,49,8.30
2017,06,14,14,50,7.40
2017,06,14,14,51,9.60
2017,06,14,14,52,10.80
2017,06,14,14,53,9.50
2017,06,14,14,54,4.70
2017,06,14,14,55,10.00
2017,06,14,14,56,7.20
2017,06,14,14,57,8.80
2017,06,14,14,58,6.00
2017,06,14,14,59,6.30
2017,06,14,15,00,8.10
2017,06,14,15,01,11.10
2017,06,14,15,02,7.10
2017,06,14,15,03,6.60
2017,06,14,15,04,6.50
2017,06,14,15,05,11.40
2017,06,14,15,06,8.00
2017,06,14,15,07,9.40
2017,06,14,15,08,5.20
2017,06,14,15,09,5.60
2017,06,14,15,10,7.20
2017,06,14,15,11,3.50
2017,06,14,15,12,6.60
2017,06,14,15,13,13.20
2017,06,14,15,14,7.30
2017,06,14,15,15,10.70
2017,06,14,15,16,11.50
2017,06,14,15,17,10.50
2017,06,14,15,18,10.30
2017,06,14,15,19,12.90
2017,06,14,15,20,11.80
2017,06,14,15,21,4.60
2017,06,14,15,22,6.40
2017,06,14,15,23,11.30
2017,06,14,15,24,12.90
2017,06,14,15,25,12.00
2017,06,14,15,26,11.90
2017,06,14,15,27,9.80
2017,06,14,15,28,10.00
2017,06,14,15,29,7.50
2017,06,14,15,30,5.10
2017,06,14,15,31,10.20
2017,06,14,15,32,9.00
2017,06,14,15,33,6.70
2017,06,14,15,34,15.30
2017,06,14,15,35,13.70
2017,06,14,15,36,10.90
2017,06,14,15,37,12.60
2017,06,14,15,38,10.30
2017,06,14,15,39,9.40
2017,06,14,15,40,6.90
2017,06,14,15,41,12.50
2017,06,14,15,42,12.80
2017,06,14,15,43,9.80
2017,06,14,15,44,7.20
2017,06,14,15,45,10.50
2017,06,14,15,46,7.00
2017,06,14,15,47,7.90
2017,06,14,15,48,11.20
2017,06,14,15,49,9.30
2017,06,14,15,50,13.90
2017,06,14,15,51,10.10
2017,06,14,15,52,11.00
2017,06,14,15,53,10.00
2017,06,14,15,54,12.20
2017,06,14,15,55,4.90
2017,06,14,15,56,7.80
2017,06,14,15,57,10.50
2017,06,14,15,58,12.50
2017,06,14,15,59,9.40
2017,06,14,16,00,10.80
2017,06,14,16,01,13.20
2017,06,14,16,02,8.80
2017,06,14,16,03,14.30
2017,06,14,16,04,11.40
2017,06,14,16,05,12.20
2017,06,14,16,06,11.40
2017,06,14,16,07,7.10
2017,06,14,16,08,7.80
2017,06,14,16,09,4.30
2017,06,14,16,10,4.70
2017,06,14,16,11,1.80
2017,06,14,16,12,7.20
2017,06,14,16,13,4.80
2017,06,14,16,14,5.10
2017,06,14,16,15,7.40
2017,06,14,16,16,6.60
2017,06,14,16,17,9.00
2017,06,14,16,18,10.40
2017,06,14,16,19,9.70
2017,06,14,16,20,10.80
2017,06,14,16,21,10.10
2017,06,14,16,22,6.40
2017,06,14,16,23,14.20
2017,06,14,16,24,12.10
2017,06,14,16,25,10.90
2017,06,14,16,26,11.70
2017,06,14,16,27,8.60
2017,06,14,16,28,5.80
2017,06,14,16,29,10.10
2017,06,14,16,30,19.80
2017,06,14,16,31,17.10
2017,06,14,16,32,11.80
2017,06,14,16,33,9.60
2017,06,14,16,34,11.10
2017,06,14,16,35,12.20
2017,06,14,16,36,9.70
2017,06,14,16,37,8.90
2017,06,14,16,38,14.60
2017,06,14,16,39,9.80
2017,06,14,16,40,8.90
2017,06,14,16,41,12.90
2017,06,14,16,42,8.50
2017,06,14,16,43,7.70
2017,06,14,16,44,8.00
2017,06,14,16,45,7.10
2017,06,14,16,46,8.60
2017,06,14,16,47,9.20
2017,06,14,16,48,14.00
2017,06,14,16,49,12.60
2017,06,14,16,50,12.20
2017,06,14,16,51,13.10
2017,06,14,16,52,12.10
2017,06,14,16,53,10.00
2017,06,14,16,54,13.00
2017,06,14,16,55,14.90
2017,06,14,16,56,10.40
2017,06,14,16,57,11.40
2017,06,14,16,58,7.60
2017,06,14,16,59,10.60
2017,06,14,17,00,9.80
2017,06,14,17,01,9.20
2017,06,14,17,02,11.30
2017,06,14,17,03,6.50
2017,06,14,17,04,7.80
2017,06,14,17,05,7.30
2017,06,14,17,06,7.20
2017,06,14,17,07,9.10
2017,06,14,17,08,4.60
2017,06,14,17,09,12.00
2017,06,14,17,10,9.80
2017,06,14,17,11,9.80
2017,06,14,17,12,6.40
2017,06,14,17,13,10.90
2017,06,14,17,14,12.80
2017,06,14,17,15,4.70
2017,06,14,17,16,7.60
2017,06,14,17,17,9.10
2017,06,14,17,18,7.60
2017,06,14,17,19,12.30
2017,06,14,17,20,13.80
2017,06,14,17,21,10.50
2017,06,14,17,22,12.00
2017,06,14,17,23,6.60
2017,06,14,17,24,9.30
2017,06,14,17,25,14.10
2017,06,14,17,26,9.30
2017,06,14,17,27,8.20
2017,06,14,17,28,6.90
2017,06,14,17,29,8.60
2017,06,14,17,30,4.80
2017,06,14,17,31,8.00
2017,06,14,17,32,10.50
2017,06,14,17,33,8.10
2017,06,14,17,34,4.20
2017,06,14,17,35,8.60
2017,06,14,17,36,2.60
2017,06,14,17,37,5.10
2017,06,14,17,38,4.30
2017,06,14,17,39,1.50
2017,06,14,17,40,5.70
2017,06,14,17,41,6.60
2017,06,14,17,42,0.20
2017,06,14,17,43,0.00
2017,06,14,17,44,0.80
2017,06,14,17,45,6.00
2017,06,14,17,46,2.30
2017,06,14,17,47,5.60
2017,06,14,17,48,1.90
2017,06,14,17,49,0.00
2017,06,14,17,50,0.20
2017,06,14,17,51,3.90
2017,06,14,17,52,0.00
2017,06,14,17,53,0.00
2017,06,14,17,54,0.30
2017,06,14,17,55,0.00
2017,06,14,17,56,0.60
2017,06,14,17,57,0.50
2017,06,14,17,58,0.00
2017,06,14,17,59,0.60
2017,06,14,18,00,1.40